This demonstration page uses our WeatherBlox Daily Observations layout. Learn more.

Left ArrowRight Arrow

Hourly Observations for June 4, 2021

Temp ( °F °C ) Dew Point ( °F °C ) Humidity (%) Winds ( mph kmh ) Pressure ( in mb ) Visibility ( mi km ) Precip ( " mm )
12:53 am 00:53 Clear 84 28.9 41 5 22 22 NW 7 11 29.75 1008 10 16 0.00 0.00
1:53 am 01:53 Clear 80 26.7 42 5.6 26 26 Calm 29.77 1008 10 16 0.00 0.00
2:53 am 02:53 Clear 79 26.1 42 5.6 27 27 NW 3 6 29.78 1008 10 16 0.00 0.00
3:53 am 03:53 Clear 70 21.1 47 8.3 44 44 Calm 29.79 1009 10 16 0.00 0.00
4:53 am 04:53 Clear 70 21.1 49 9.4 47 47 Calm 29.80 1009 10 16 0.00 0.00
5:53 am 05:53 Sunny 68 20 50 10 53 53 Calm 29.81 1010 10 16 0.00 0.00
6:53 am 06:53 Sunny 71 21.7 51 10.6 49 49 NNE 5 7 29.82 1010 10 16 0.00 0.00
7:53 am 07:53 Sunny 79 26.1 52 11.1 39 39 N 5 7 29.83 1010 10 16 0.00 0.00
8:53 am 08:53 Sunny 84 28.9 52 11.1 33 33 NNW 6 9 29.83 1010 10 16 0.00 0.00
9:53 am 09:53 Sunny 87 30.6 51 10.6 29 29 WNW 5 7 29.83 1010 10 16 0.00 0.00
10:53 am 10:53 Sunny 91 32.8 51 10.6 26 26 E 5 7 29.82 1010 10 16 0.00 0.00
11:53 am 11:53 Sunny 95 35 51 10.6 23 23 W 5 7 29.81 1009 10 16 0.00 0.00
12:53 pm 12:53 Sunny 97 36.1 48 8.9 19 19 VRB 6 9 29.79 1009 10 16 0.00 0.00
1:53 pm 13:53 Sunny 98 36.7 42 5.6 15 15 S 5 7 29.78 1009 10 16 0.00 0.00
2:53 pm 14:53 Sunny 99 37.2 45 7.2 16 16 SE 8 13 29.76 1008 10 16 0.00 0.00
3:53 pm 15:53 Sunny 100 37.8 42 5.6 14 14 SSE 5 7 29.75 1007 10 16 0.00 0.00
4:53 pm 16:53 Sunny 101 38.3 46 7.8 15 15 S 5 7 29.73 1007 10 16 0.00 0.00
5:53 pm 17:53 Sunny 100 37.8 44 6.7 15 15 SSE 14 22 29.71 1006 10 16 0.00 0.00
6:53 pm 18:53 Sunny 100 37.8 46 7.8 16 16 SSE 14 22 29.70 1006 10 16 0.00 0.00
7:53 pm 19:53 Sunny 95 35 49 9.4 21 21 S 13 20 29.70 1006 10 16 0.00 0.00
8:53 pm 20:53 Clear 90 32.2 57 13.9 33 33 SSE 10 17 29.72 1006 10 16 0.00 0.00
9:53 pm 21:53 Clear 86 30 60 15.6 42 42 ESE 5 7 29.75 1008 10 16 0.00 0.00
10:53 pm 22:53 Clear 86 30 50 10 29 29 VRB 7 11 29.79 1009 10 16 0.00 0.00
11:53 pm 23:53 Clear 82 27.8 40 4.4 22 22 SE 6 9 29.80 1009 10 16 0.00 0.00

Powered by AerisWeather